| time (UTC) | temp F | wind direction | speed knots | gust knots | rain 1hr in | rain 24hr in | rain mn in | humidity % | barometer mb |
| 20260506113006 | 64 | 229 | 0.9 | 4.3 | 0.00 | 0.00 | 0.00 | 79 | 1021.0 |
| 20260506111504 | 64 | 290 | 1.7 | 4.3 | 0.00 | 0.00 | 0.00 | 77 | 1021.0 |
| 20260506110003 | 64 | 219 | 0.9 | 5.2 | 0.00 | 0.00 | 0.00 | 76 | 1021.0 |
| 20260506104504 | 64 | 318 | 1.7 | 4.3 | 0.00 | 0.00 | 0.00 | 76 | 1021.0 |
| 20260506103002 | 64 | 275 | 1.7 | 7.0 | 0.00 | 0.00 | 0.00 | 75 | 1021.0 |
| 20260506101501 | 64 | 289 | 1.7 | 8.7 | 0.00 | 0.00 | 0.00 | 75 | 1021.0 |
| 20260506100120 | 64 | 267 | 2.6 | 6.1 | 0.00 | 0.00 | 0.00 | 75 | 1021.0 |
| 20260506094601 | 64 | 240 | 0.9 | 3.5 | 0.00 | 0.00 | 0.00 | 75 | 1021.0 |
| 20260506093059 | 64 | 295 | 2.6 | 6.1 | 0.00 | 0.00 | 0.00 | 74 | 1021.0 |
| 20260506091659 | 64 | 286 | 1.7 | 6.1 | 0.00 | 0.00 | 0.00 | 74 | 1021.0 |
| 20260506090058 | 64 | 288 | 0.9 | 7.8 | 0.00 | 0.00 | 0.00 | 74 | 1021.0 |
| 20260506084622 | 64 | 284 | 0.9 | 8.7 | 0.00 | 0.00 | 0.00 | 73 | 1021.0 |
| 20260506083057 | 64 | 246 | 0.9 | 2.6 | 0.00 | 0.00 | 0.00 | 73 | 1021.0 |
| 20260506081600 | 64 | 219 | 0.0 | 3.5 | 0.00 | 0.00 | 0.00 | 72 | 1021.0 |
| 20260506073053 | 65 | 250 | 0.0 | 2.6 | 0.00 | 0.00 | 0.00 | 69 | 1021.0 |
| 20260506071553 | 65 | 300 | 0.9 | 4.3 | 0.00 | 0.00 | 0.00 | 69 | 1021.0 |
| 20260506061549 | 63 | 299 | 0.0 | 0.0 | 0.00 | 0.00 | 0.00 | 69 | 1021.0 |
| 20260506044634 | 64 | 226 | 0.9 | 5.2 | 0.00 | 0.00 | 0.00 | 65 | 1021.0 |
| 20260506043039 | 63 | 315 | 0.0 | 0.0 | 0.00 | 0.00 | 0.00 | 66 | 1021.0 |
| 20260506041537 | 63 | 317 | 0.0 | 0.0 | 0.00 | 0.00 | 0.00 | 65 | 1021.0 |
| 20260506040036 | 63 | 317 | 0.0 | 0.0 | 0.00 | 0.00 | 0.00 | 66 | 1021.0 |
| 20260506034602 | 63 | 317 | 0.0 | 0.0 | 0.00 | 0.00 | 0.00 | 66 | 1021.0 |
| 20260506033138 | 64 | 317 | 0.0 | 0.0 | 0.00 | 0.00 | 0.00 | 64 | 1021.0 |
| 20260506031535 | 66 | 317 | 0.0 | 1.7 | 0.00 | 0.00 | 0.00 | 62 | 1021.0 |
| 20260506030035 | 66 | 252 | 0.0 | 1.7 | 0.00 | 0.00 | 0.00 | 61 | 1021.0 |
| 20260506024534 | 67 | 276 | 0.9 | 6.1 | 0.00 | 0.00 | 0.00 | 59 | 1021.0 |
| 20260506023045 | 68 | 235 | 0.9 | 3.5 | 0.00 | 0.00 | 0.00 | 58 | 1021.0 |
| 20260506021534 | 68 | 174 | 0.0 | 3.5 | 0.00 | 0.00 | 0.00 | 57 | 1021.0 |
| 20260506020032 | 69 | 305 | 0.0 | 2.6 | 0.00 | 0.00 | 0.00 | 55 | 1021.0 |
| 20260506014533 | 69 | 9 | 0.9 | 4.3 | 0.00 | 0.00 | 0.00 | 54 | 1021.0 |
| 20260506013038 | 70 | 159 | 0.9 | 3.5 | 0.00 | 0.00 | 0.00 | 52 | 1021.0 |
| 20260506011532 | 71 | 202 | 0.9 | 4.3 | 0.00 | 0.00 | 0.00 | 51 | 1021.0 |
| 20260506010032 | 72 | 314 | 0.9 | 7.0 | 0.00 | 0.00 | 0.00 | 50 | 1021.0 |
| 20260506004548 | 72 | 292 | 0.9 | 4.3 | 0.00 | 0.00 | 0.00 | 48 | 1021.0 |
| 20260506003041 | 73 | 291 | 0.9 | 7.0 | 0.00 | 0.00 | 0.00 | 47 | 1021.0 |
| 20260506001529 | 74 | 177 | 1.7 | 5.2 | 0.00 | 0.00 | 0.00 | 47 | 1021.0 |
| 20260506000128 | 74 | 113 | 0.9 | 3.5 | 0.00 | 0.00 | 0.00 | 47 | 1021.0 |
| 20260505234541 | 75 | 185 | 1.7 | 7.8 | 0.00 | 0.00 | 0.00 | 47 | 1021.0 |
| 20260505233027 | 76 | 223 | 1.7 | 9.6 | 0.00 | 0.00 | 0.00 | 46 | 1021.0 |
| 20260505231527 | 76 | 259 | 0.9 | 8.7 | 0.00 | 0.00 | 0.00 | 46 | 1021.0 |
| 20260505230036 | 77 | 299 | 0.9 | 5.2 | 0.00 | 0.00 | 0.00 | 45 | 1021.0 |
| 20260505224525 | 78 | 275 | 0.9 | 6.1 | 0.00 | 0.00 | 0.00 | 45 | 1021.0 |
| 20260505223025 | 79 | 307 | 2.6 | 7.0 | 0.00 | 0.00 | 0.00 | 43 | 1021.0 |
| 20260505221525 | 79 | 317 | 1.7 | 8.7 | 0.00 | 0.00 | 0.00 | 40 | 1021.0 |
| 20260505220033 | 79 | 275 | 7.0 | 11.3 | 0.00 | 0.00 | 0.00 | 37 | 1021.0 |
| 20260505214531 | 80 | 291 | 7.0 | 13.9 | 0.00 | 0.00 | 0.00 | 38 | 1021.0 |
| 20260505213025 | 81 | 283 | 7.8 | 15.6 | 0.00 | 0.00 | 0.00 | 35 | 1021.0 |
| 20260505211522 | 81 | 306 | 7.0 | 14.8 | 0.00 | 0.00 | 0.00 | 36 | 1021.0 |
| 20260505210020 | 81 | 296 | 6.1 | 17.4 | 0.00 | 0.00 | 0.00 | 35 | 1021.0 |
| 20260505204519 | 81 | 288 | 6.1 | 14.8 | 0.00 | 0.00 | 0.00 | 43 | 1021.0 |
| 20260505203019 | 81 | 292 | 5.2 | 16.5 | 0.00 | 0.00 | 0.00 | 37 | 1021.0 |
| 20260505201522 | 81 | 313 | 12.2 | 18.2 | 0.00 | 0.00 | 0.00 | 36 | 1021.0 |
| 20260505200016 | 81 | 286 | 9.6 | 22.6 | 0.00 | 0.00 | 0.00 | 36 | 1021.0 |
| 20260505194529 | 81 | 270 | 10.4 | 17.4 | 0.00 | 0.00 | 0.00 | 36 | 1021.0 |
| 20260505193031 | 81 | 292 | 8.7 | 14.8 | 0.00 | 0.00 | 0.00 | 40 | 1021.0 |
| 20260505191511 | 81 | 267 | 6.1 | 16.5 | 0.00 | 0.00 | 0.00 | 40 | 1021.0 |
| 20260505190012 | 81 | 313 | 3.5 | 18.2 | 0.00 | 0.00 | 0.00 | 39 | 1021.0 |
| 20260505184509 | 81 | 293 | 7.8 | 17.4 | 0.00 | 0.00 | 0.00 | 43 | 1021.0 |
| 20260505183012 | 81 | 265 | 9.6 | 13.9 | 0.00 | 0.00 | 0.00 | 39 | 1021.0 |
| 20260505181505 | 80 | 314 | 8.7 | 13.9 | 0.00 | 0.00 | 0.00 | 42 | 1021.0 |
| 20260505180004 | 80 | 298 | 5.2 | 18.2 | 0.00 | 0.00 | 0.00 | 40 | 1021.0 |
| 20260505174502 | 79 | 309 | 11.3 | 17.4 | 0.00 | 0.00 | 0.00 | 42 | 1021.0 |
| 20260505173001 | 79 | 309 | 7.0 | 19.1 | 0.00 | 0.00 | 0.00 | 46 | 1021.0 |
| 20260505171559 | 79 | 312 | 12.2 | 18.2 | 0.00 | 0.00 | 0.00 | 43 | 1021.0 |
| 20260505170137 | 79 | 302 | 11.3 | 17.4 | 0.00 | 0.00 | 0.00 | 43 | 1021.0 |
| 20260505164556 | 78 | 308 | 12.2 | 20.0 | 0.00 | 0.00 | 0.00 | 43 | 1021.0 |
| 20260505163055 | 78 | 294 | 10.4 | 14.8 | 0.00 | 0.00 | 0.00 | 46 | 1021.0 |
| 20260505161601 | 78 | 300 | 10.4 | 15.6 | 0.00 | 0.00 | 0.00 | 49 | 1021.0 |
| 20260505153056 | 77 | 304 | 10.4 | 18.2 | 0.00 | 0.00 | 0.00 | 49 | 1021.0 |
| 20260505151550 | 76 | 315 | 13.9 | 20.9 | 0.00 | 0.00 | 0.00 | 47 | 1021.0 |
| 20260505124516 | 64 | 300 | 2.6 | 7.0 | 0.00 | 0.00 | 0.00 | 67 | 1021.0 |
| 20260505123010 | 63 | 301 | 1.7 | 4.3 | 0.00 | 0.00 | 0.00 | 68 | 1021.0 |
| 20260505121506 | 61 | 296 | 1.7 | 4.3 | 0.00 | 0.00 | 0.00 | 73 | 1021.0 |
| 20260505120100 | 59 | 298 | 0.9 | 2.6 | 0.00 | 0.00 | 0.00 | 78 | 1021.0 |
| 20260505114615 | 58 | 33 | 0.9 | 1.7 | 0.00 | 0.00 | 0.00 | 79 | 1021.0 |